RH
44 41 40 36 33 34 34 35 36 35 34 34 35 34 34 36 41 40 41 45 44 43 42 42 42 42 42 40 39 41 41 42 42 42 42 41 39 38 38 38 38 38 35 35 35 34 33 32 29 25 25 30
43 40 39 34 33 33 30 32 34 35 34 33 33 35 35 37 41 41 42 44 43 42 40 40 42 41 41 40 38 40 41 41 41 41 41 40 39 39 38 37 36 33 31 33 33 33 32 31 29 25 26 32
42 40 37 33 32 31 29 29 31 32 31 30 30 31 33 35 39 40 40 41 41 41 39 37 41 41 41 40 38 40 40 40 40 39 39 39 39 38 37 36 32 29 30 32 32 31 31 30 29 25 24 31
42 41 37 33 32 31 29 27 27 27 27 28 29 30 30 32 37 40 39 37 37 39 39 37 39 41 40 39 38 39 39 38 39 37 37 39 38 34 33 29 25 28 32 33 31 30 29 27 26 25 24 28
43 41 37 34 32 31 28 25 25 26 27 29 30 31 30 32 37 40 36 33 34 35 37 38 39 40 40 39 37 38 37 37 37 37 37 36 32 28 24 19 20 26 30 31 31 29 27 26 24 24 23 25
43 41 37 34 32 31 28 26 26 27 28 30 31 31 31 32 35 37 31 29 31 32 36 37 39 41 41 39 36 36 36 36 35 35 33 27 21 18 15 15 18 24 27 30 30 28 27 26 24 23 23 23
43 42 37 34 33 32 31 28 27 27 29 30 31 32 32 31 34 34 29 26 26 28 33 35 38 40 40 38 34 33 36 35 29 25 22 18 14 13 13 15 18 21 24 28 28 27 26 25 24 23 23 22
44 42 38 35 34 34 34 31 28 28 30 31 32 33 33 32 33 33 28 25 23 25 28 30 34 37 36 34 30 29 32 28 18 13 13 12 12 12 14 15 16 17 20 23 25 26 25 24 24 24 24 24
43 42 37 35 36 37 37 33 29 29 31 32 33 33 34 33 33 32 28 25 24 24 26 26 30 33 32 29 25 22 21 17 11 10 10 10 12 13 14 14 14 15 16 19 21 23 23 24 24 25 25 24
44 42 37 36 38 39 38 36 32 31 32 33 34 34 35 34 33 31 29 26 24 24 25 25 26 27 27 25 21 18 15 13 10 10 10 10 12 13 14 13 12 12 13 15 17 19 21 23 24 24 24 24
45 42 38 38 40 40 39 40 38 37 35 34 34 35 35 35 33 31 29 27 25 24 24 25 25 25 24 23 20 18 16 14 12 11 11 11 11 12 13 13 12 11 12 12 14 16 18 20 21 21 21 23
46 42 39 40 43 41 40 41 42 42 40 37 35 35 37 36 35 32 30 29 26 25 25 25 25 25 24 23 21 19 18 16 15 13 12 12 12 13 13 13 13 12 12 13 13 14 15 16 17 18 18 19
48 44 43 43 44 44 43 42 43 44 44 42 38 36 37 37 36 33 30 29 28 27 26 25 26 25 24 23 22 21 20 19 18 16 15 13 13 13 13 13 13 13 13 13 13 14 14 15 15 15 16 16
52 49 48 47 46 46 46 45 44 45 47 47 43 39 38 38 37 35 32 30 29 28 28 27 26 25 25 24 23 23 22 22 20 19 17 15 14 13 13 14 14 14 14 14 14 14 14 15 15 15 15 15
57 56 54 51 48 47 47 48 46 46 47 49 47 43 40 39 39 37 34 31 29 30 29 29 28 27 26 25 25 25 25 24 23 22 20 18 16 14 14 14 14 14 14 15 15 15 15 15 15 15 15 15
62 61 59 55 51 49 49 48 47 46 47 49 50 48 44 41 40 39 37 33 30 30 31 30 30 29 28 28 27 27 27 26 26 24 23 21 18 16 15 14 14 15 15 15 15 15 16 15 15 15 15 14
69 66 63 59 54 52 51 49 47 47 47 48 50 50 48 44 41 40 39 36 32 31 32 32 32 31 30 30 29 29 29 29 28 27 25 24 21 19 17 16 16 16 16 16 16 16 16 16 15 15 14 14
76 74 69 63 57 54 53 51 49 49 48 48 50 51 51 47 43 41 41 40 35 32 32 33 33 33 33 32 32 31 31 31 30 29 28 26 24 22 20 18 18 18 18 18 17 17 17 17 16 16 16 15
80 79 73 65 59 57 56 53 51 50 49 48 49 51 52 50 46 43 43 42 39 35 33 34 34 34 35 34 34 34 34 33 33 31 30 29 27 25 23 21 20 20 21 21 20 20 20 20 19 18 18 17
81 77 73 66 61 59 58 56 53 50 49 48 49 51 53 54 50 45 45 45 43 39 35 35 35 36 36 36 36 36 37 36 35 34 33 31 30 28 25 23 22 21 22 22 22 22 23 23 23 23 22 21
84 74 68 66 63 61 60 59 56 52 51 49 49 51 53 55 53 48 46 47 46 42 38 36 36 36 37 38 38 38 39 39 38 37 36 34 33 31 29 25 23 22 22 23 23 23 24 24 25 25 25 24
83 73 65 63 62 62 62 61 58 55 53 50 49 51 53 55 55 51 47 48 48 46 42 39 37 37 38 39 39 40 41 41 41 40 39 38 37 35 33 30 27 25 24 24 24 25 25 26 26 26 26 26
74 70 65 62 62 62 63 62 60 58 55 53 50 50 53 54 56 54 49 48 49 49 45 42 40 39 39 39 40 41 42 42 43 42 42 41 41 40 38 35 32 29 28 27 27 27 27 27 28 28 28 28
68 67 66 64 63 63 64 64 62 61 58 55 52 50 52 54 56 56 52 48 49 50 49 45 43 41 40 40 40 41 42 43 43 43 44 44 44 44 42 40 37 34 32 30 30 30 30 30 30 30 30 29
74 70 69 67 65 64 65 66 65 63 61 57 54 52 53 54 55 57 56 52 49 52 53 50 47 44 42 41 41 41 42 43 44 44 46 46 47 46 44 43 42 39 36 34 33 32 32 32 33 32 32 32
82 76 73 72 70 68 66 67 66 65 63 60 56 54 54 55 56 56 59 58 54 53 56 56 52 48 46 44 43 43 42 43 44 45 46 48 48 47 46 45 45 44 41 38 36 35 36 36 35 35 35 36
87 83 78 75 74 72 70 69 68 67 64 62 59 57 55 56 57 57 60 63 60 56 56 58 56 53 49 46 45 44 44 44 44 45 46 47 48 47 47 48 48 46 45 42 40 39 40 40 39 39 39 38
89 86 83 80 76 73 73 71 71 70 68 66 65 62 59 58 59 59 61 63 63 60 56 56 56 56 52 50 48 47 46 46 46 46 46 46 47 48 49 50 49 48 47 47 45 44 44 43 43 44 43 40
87 88 86 83 79 76 76 75 74 73 73 73 72 69 65 61 60 61 62 63 64 63 59 55 55 56 55 53 51 49 48 48 48 47 46 47 47 49 49 50 50 50 50 49 49 47 46 46 46 46 45 42
78 85 87 85 82 82 81 77 75 76 77 77 77 74 71 68 65 63 63 64 65 66 63 59 56 56 56 55 53 51 51 50 50 49 49 49 49 49 50 51 51 51 51 51 50 49 48 47 47 47 46 44
70 76 85 88 88 90 92 88 82 80 78 78 79 78 77 75 72 69 67 67 67 68 67 64 60 57 56 56 54 52 51 52 53 52 52 52 52 52 51 51 52 52 51 50 51 52 50 49 47 48 48 47